Content
SEND FEEDBACK

Australia Flag

FREMANTLE, WESTERN AUSTRALIA


Home > Oceania > Australia > Western Australia
Elevation: 16 feet     Latitude: 32 03S     Longitude: 115 45E

WEATHER
 
SELECT A DAY
Number of Records: 309,701;   Date Range: 7/1/96 - 3/22/16
 
SHARE

PRINT THIS DATA

[ ← Previous Day ]
WEATHER ALMANAC - JANUARY 30, 2013
[ Next Day → ]
[ °C ]   °F
Weather ElementAverageHighLow
Temperature79.4 °F91.4 °F (1:00 pm)66.2 °F (12:30 am)
Dewpoint51 °F61 °F (5:00 pm)41 °F (12:00 pm)
Humidity36.1 %60 % (12:30 am)10 % (12:00 pm)
Barometer30.06 in30.10 in (8:00 am)30.01 in (3:30 pm)
Wind Speed11.7 mph21.9 mph (4:00 pm)
Weather ElementAverage
Visibility19 mi
Wind DirectionSSE (172.7 °)

Weather ElementTotal
Precipitation---
Cooling Degree Days13.8 (Base 65)
Growing Degree Days28.8 (Base 50)
Averaged from 63 records on January 30, 2013
WEATHER CONDITIONS BREAKOUT
WIND DIRECTION BREAKOUT
WEATHER BY HOUR - JANUARY 30, 2013
[ °C ]   °F
Local TimeTemperatureDewpointHumidityBarometerVisibilityWind DirectionWind SpeedGust SpeedPrecipitationEventsConditions
12:00 AM68.0 °F51.8 °F56 %30.04 inSouth (180°)9.2 mphClear
12:30 AM66.2 °F51.8 °F60 %30.04 inSSW (200°)8.1 mphClear
1:00 AM66.2 °F50.0 °F56 %30.04 inSSW (210°)8.1 mphClear
1:30 AM71.6 °F46.4 °F41 %30.04 inSouth (190°)12.7 mphClear
2:00 AM72.0 °F46.0 °F28 %30.05 inSW (220°)9.2 mph
2:00 AM73.4 °F46.4 °F38 %30.04 inSW (220°)9.2 mphClear
2:30 AM73.4 °F48.2 °F41 %30.04 inSSW (210°)6.9 mphClear
3:00 AM73.4 °F48.2 °F41 %30.04 inSSE (150°)9.2 mphClear
3:00 AM73.0 °F48.0 °F30 %30.04 in19.0 miSSE (150°)9.2 mphPartly Cloudy
3:30 AM71.6 °F48.2 °F43 %30.04 inSE (140°)6.9 mphClear
4:00 AM69.8 °F48.2 °F46 %30.04 inSE (130°)10.4 mphClear
4:30 AM71.6 °F48.2 °F43 %30.04 inSE (130°)8.1 mphClear
5:00 AM70.0 °F47.0 °F32 %30.06 inSE (140°)5.8 mph
5:00 AM69.8 °F46.4 °F43 %30.04 inSE (140°)5.8 mphClear
5:30 AM68.0 °F48.2 °F49 %30.06 inESE (110°)6.9 mphClear
6:00 AM68.0 °F46.4 °F46 %30.09 inESE (110°)10.4 mphClear
6:00 AM68.0 °F47.0 °F36 %30.09 in19.0 miESE (110°)10.4 mphPartly Cloudy
6:30 AM69.8 °F46.4 °F43 %30.09 inEast (100°)11.5 mphClear
7:00 AM69.8 °F42.8 °F38 %30.09 inEast (100°)9.2 mphClear
7:30 AM71.6 °F42.8 °F35 %30.09 inENE (70°)6.9 mphClear
8:00 AM73.0 °F44.0 °F24 %30.10 inESE (120°)8.1 mph
8:00 AM73.4 °F44.6 °F36 %30.09 inESE (120°)8.1 mphClear
8:30 AM75.2 °F44.6 °F34 %30.09 inEast (90°)6.9 mphClear
9:00 AM78.8 °F44.6 °F30 %30.09 inENE (70°)8.1 mphClear
9:00 AM78.0 °F44.0 °F19 %30.10 in19.0 miENE (70°)8.1 mphPartly Cloudy
9:30 AM80.6 °F42.8 °F26 %30.09 inSSE (150°)8.1 mphClear
10:00 AM82.4 °F44.6 °F26 %30.09 inEast (100°)10.4 mphClear
10:30 AM84.2 °F44.6 °F25 %30.06 inSE (130°)9.2 mphClear
11:00 AM85.0 °F43.0 °F13 %30.08 inSE (130°)5.8 mph
11:00 AM86.0 °F42.8 °F22 %30.06 inSE (130°)5.8 mphClear
11:30 AM87.8 °F42.8 °F21 %30.06 inSouth (170°)8.1 mphClear
12:00 PM89.6 °F41.0 °F18 %30.06 inSouth (170°)8.1 mphClear
12:00 PM90.0 °F41.0 °F10 %30.07 in19.0 miSouth (170°)8.1 mphPartly Cloudy
12:30 PM89.6 °F42.8 °F20 %30.04 inSE (140°)8.1 mphClear
1:00 PM91.4 °F42.8 °F18 %30.04 inSSW (210°)9.2 mphClear
1:30 PM89.6 °F51.8 °F27 %30.04 inWSW (250°)16.1 mphClear
2:00 PM89.0 °F55.0 °F22 %30.04 inWSW (250°)17.3 mph
2:00 PM89.6 °F55.4 °F31 %30.04 inWSW (250°)17.3 mphClear
2:30 PM87.8 °F57.2 °F35 %30.04 inWest (260°)17.3 mphClear
3:00 PM89.6 °F57.2 °F33 %30.04 inSW (230°)19.6 mphClear
3:00 PM90.0 °F56.0 °F22 %30.04 in19.0 miWSW (250°)18.4 mphPartly Cloudy
3:30 PM87.8 °F57.2 °F35 %30.01 inSW (230°)19.6 mphClear
4:00 PM87.8 °F59.0 °F38 %30.01 inSW (220°)21.9 mphClear
4:30 PM86.0 °F59.0 °F40 %30.01 inSW (220°)20.7 mphClear
5:00 PM86.0 °F61.0 °F32 %30.02 inWSW (250°)18.4 mph
5:00 PM86.0 °F60.8 °F43 %30.01 inWSW (250°)18.4 mphClear
5:30 PM86.0 °F60.8 °F43 %30.01 inSW (230°)17.3 mphClear
6:00 PM86.0 °F59.0 °F40 %30.01 inSW (220°)15.0 mphClear
6:00 PM85.0 °F59.0 °F32 %30.03 in19.0 miSW (220°)15.0 mphPartly Cloudy
6:30 PM84.2 °F60.8 °F45 %30.04 inSW (230°)16.1 mphClear
7:00 PM82.4 °F59.0 °F45 %30.04 inSSW (210°)13.8 mphClear
7:30 PM82.4 °F60.8 °F48 %30.04 inSSW (210°)12.7 mphClear
8:00 PM81.0 °F60.0 °F38 %30.06 inSouth (180°)17.3 mph
8:00 PM80.6 °F59.0 °F48 %30.04 inSouth (180°)17.3 mphClear
8:30 PM80.6 °F59.0 °F48 %30.06 inSouth (180°)16.1 mphClear
9:00 PM80.6 °F59.0 °F48 %30.06 inSouth (180°)15.0 mphClear
9:00 PM80.0 °F58.0 °F37 %30.08 in19.0 miSouth (180°)15.0 mphPartly Cloudy
9:30 PM78.8 °F59.0 °F51 %30.06 inSouth (170°)12.7 mphClear
10:00 PM77.0 °F59.0 °F54 %30.09 inSouth (170°)10.4 mphClear
10:30 PM77.0 °F57.2 °F50 %30.09 inSouth (170°)9.2 mphClear
11:00 PM80.0 °F52.0 °F27 %30.10 inSouth (170°)11.5 mph
11:00 PM80.6 °F51.8 °F37 %30.09 inSouth (170°)11.5 mphClear
11:30 PM78.8 °F50.0 °F36 %30.09 inSouth (170°)9.2 mphClear
Hourly data recorded from YPJT, located miles away from Fremantle, Western Australia




STORIES FROM OUR PARTNERS